User: anonymous   Login
Location: Daybis Observatory
(33.4273°N, 88.8061°W)
Time: 00:25:51
(UTC-06:00)
Language:

Coronas F rocket - Orbit

View from above orbital plane
View from above orbital plane
View from above satellite
View from above satellite

Ground track
Ground track

The orbit data is extracted from the following two-line orbital elements,

1 26874U 01032B   14355.19971533  .00032644  00000-0  43476-3 0  8781
2 26874 082.4698 146.7160 0014022 084.9692 275.3164 15.57858487750354
Epoch (UTC): 21 December 2014 04:47:35
Eccentricity: 0.0014022
inclination: 82.4698°
perigee height: 384 km
apogee height: 403 km
right ascension of ascending node: 146.7160°
argument of perigee: 84.9692°
revolutions per day: 15.57858487
mean anomaly at epoch: 275.3164°
orbit number at epoch: 75035

The dashed part of the orbit path shows where the satellite is in the earth's shadow,  

DLR